Volver al catálogo

STARLINK-34037

ActivoComunicacionesVLEO
NORAD 63847·PAYLOAD·🇺🇸 United States

Lanzado May 7, 2025 desde Cape Canaveral Space Force Station

Loading…

Próximos Pases (próximas 24 horas)

TLE

ActualizadoSource: CelesTrak SupGP

Época: Sep 14, 2026, 21:30 UTC

1 63847C 25093M   26257.89631944  .00002796  00000+0  10131-3 0  2572
2 63847  43.0032  89.2591 0001394 275.2984 318.6533 15.27568357    19

Sigue STARLINK-34037 en tiempo real con AllMySat

Download on the App Store